When you browse on this site, cookies collect data to enhance your experience and personalize the content and advertising you see.
Visit our Privacy Policy to learn more. By continuing to use the site, you agree to this use of cookies and data.
  • In Switzerland
  • List of Countries
  • For 7 days
  • Water Temperature
  • Satellite Maps
  • Weather Map
  • Weather Widgets
  • user-avatar
    Login

    Hourly Weather Kalat

    Today, 25 April, Thursday

    Time Temperature Precipitation Wind Pressure Humidity
    00:00 -3°C° 0 mm 4 mps 476 mmHg 79%
    01:00 -4°C° 0 mm 4 mps 475 mmHg 79%
    02:00 -4°C° 0 mm 4 mps 475 mmHg 80%
    03:00 -5°C° 0 mm 4 mps 474 mmHg 80%
    04:00 -5°C° 0 mm 4 mps 474 mmHg 79%
    05:00 -7°C° 0 mm 4 mps 474 mmHg 79%
    06:00 -6°C° 0 mm 5 mps 475 mmHg 75%
    07:00 -5°C° 0 mm 5 mps 475 mmHg 71%
    08:00 -4°C° 0 mm 5 mps 476 mmHg 67%
    09:00 -2°C° 0 mm 5 mps 477 mmHg 63%
    10:00 -2°C° 0 mm 6 mps 478 mmHg 59%
    11:00 -1°C° 0 mm 6 mps 478 mmHg 55%
    12:00 -1°C° 0.1 mm 6 mps 478 mmHg 54%
    13:00 0°C° 0.1 mm 7 mps 478 mmHg 53%
    14:00 0°C° 0.1 mm 7 mps 479 mmHg 52%
    15:00 +1°C° 0.1 mm 6 mps 478 mmHg 53%
    16:00 +1°C° 0.1 mm 6 mps 478 mmHg 54%
    17:00 0°C° 0.1 mm 5 mps 478 mmHg 56%
    18:00 -1°C° 0.1 mm 5 mps 477 mmHg 61%
    19:00 -2°C° 0.1 mm 4 mps 477 mmHg 67%
    20:00 -3°C° 0.1 mm 4 mps 476 mmHg 72%
    21:00 -4°C° 0 mm 4 mps 476 mmHg 74%
    22:00 -4°C° 0 mm 4 mps 475 mmHg 75%
    23:00 -5°C° 0 mm 4 mps 475 mmHg 77%

    Tomorrow, 26 April, Friday

    Time Temperature Precipitation Wind Pressure Humidity
    00:00 -5°C° 0 mm 4 mps 475 mmHg 77%
    01:00 -7°C° 0 mm 4 mps 474 mmHg 78%
    02:00 -7°C° 0 mm 4 mps 474 mmHg 78%
    03:00 -6°C° 0 mm 3 mps 474 mmHg 76%
    04:00 -7°C° 0 mm 3 mps 473 mmHg 73%
    05:00 -7°C° 0 mm 3 mps 473 mmHg 71%
    06:00 -6°C° 0 mm 3 mps 474 mmHg 69%
    07:00 -4°C° 0 mm 3 mps 475 mmHg 66%
    08:00 -3°C° 0 mm 4 mps 476 mmHg 64%
    09:00 -2°C° 0 mm 4 mps 477 mmHg 60%
    10:00 -1°C° 0 mm 4 mps 478 mmHg 55%
    11:00 0°C° 0 mm 5 mps 479 mmHg 51%
    12:00 0°C° 0.1 mm 5 mps 479 mmHg 51%
    13:00 +1°C° 0.1 mm 5 mps 479 mmHg 51%
    14:00 +1°C° 0.1 mm 5 mps 479 mmHg 51%
    15:00 +1°C° 0.1 mm 4 mps 479 mmHg 52%
    16:00 +1°C° 0.1 mm 4 mps 478 mmHg 53%
    17:00 +1°C° 0.1 mm 3 mps 478 mmHg 54%
    18:00 0°C° 0.1 mm 3 mps 478 mmHg 58%
    19:00 0°C° 0.1 mm 3 mps 477 mmHg 63%
    20:00 -1°C° 0.1 mm 2 mps 477 mmHg 67%
    21:00 -2°C° 0.1 mm 3 mps 477 mmHg 69%
    22:00 -2°C° 0.1 mm 3 mps 477 mmHg 70%
    23:00 -3°C° 0.1 mm 4 mps 476 mmHg 72%

    Day after tomorrow, 27 April, Saturday

    Time Temperature Precipitation Wind Pressure Humidity
    00:00 -4°C° 0 mm 4 mps 476 mmHg 73%
    01:00 -4°C° 0 mm 4 mps 476 mmHg 73%
    02:00 -4°C° 0 mm 4 mps 475 mmHg 74%
    03:00 -5°C° 0 mm 4 mps 475 mmHg 74%
    04:00 -5°C° 0 mm 4 mps 475 mmHg 74%
    05:00 -5°C° 0 mm 3 mps 475 mmHg 74%
    06:00 -4°C° 0 mm 3 mps 476 mmHg 71%
    07:00 -2°C° 0 mm 3 mps 476 mmHg 68%
    08:00 -1°C° 0 mm 3 mps 477 mmHg 65%
    09:00 -1°C° 0 mm 3 mps 478 mmHg 61%
    10:00 -1°C° 0 mm 4 mps 478 mmHg 56%
    11:00 0°C° 0 mm 4 mps 479 mmHg 52%
    12:00 +1°C° 0.1 mm 4 mps 479 mmHg 52%
    13:00 +1°C° 0.1 mm 4 mps 479 mmHg 52%
    14:00 +3°C° 0.1 mm 3 mps 479 mmHg 51%
    15:00 +2°C° 0.2 mm 3 mps 479 mmHg 53%
    16:00 +3°C° 0.2 mm 2 mps 478 mmHg 54%
    17:00 +3°C° 0.2 mm 2 mps 478 mmHg 56%
    18:00 +2°C° 0.2 mm 2 mps 478 mmHg 60%
    19:00 +1°C° 0.2 mm 2 mps 477 mmHg 64%
    20:00 +1°C° 0.2 mm 1 mps 477 mmHg 68%
    21:00 +1°C° 0.3 mm 1 mps 477 mmHg 71%
    22:00 -2°C° 0.3 mm 2 mps 476 mmHg 73%
    23:00 -2°C° 0.3 mm 2 mps 476 mmHg 75%

    28 April, Sunday

    Time Temperature Precipitation Wind Pressure Humidity
    00:00 -3°C° 0.4 mm 2 mps 476 mmHg 77%
    01:00 -3°C° 0.4 mm 2 mps 475 mmHg 78%
    02:00 -3°C° 0.4 mm 2 mps 475 mmHg 80%
    03:00 -3°C° 0.2 mm 2 mps 475 mmHg 78%
    04:00 -3°C° 0.2 mm 2 mps 475 mmHg 77%
    05:00 -3°C° 0.2 mm 2 mps 475 mmHg 75%
    06:00 -3°C° 0.1 mm 2 mps 475 mmHg 72%
    07:00 -2°C° 0.1 mm 2 mps 476 mmHg 69%
    08:00 0°C° 0.1 mm 1 mps 476 mmHg 66%
    09:00 -1°C° 0 mm 2 mps 477 mmHg 61%
    10:00 +1°C° 0 mm 2 mps 477 mmHg 57%
    11:00 +1°C° 0 mm 3 mps 478 mmHg 53%
    12:00 +2°C° 0 mm 3 mps 478 mmHg 48%
    13:00 +2°C° 0 mm 3 mps 478 mmHg 44%
    14:00 +3°C° 0 mm 3 mps 478 mmHg 40%
    15:00 +3°C° 0 mm 3 mps 478 mmHg 40%
    16:00 +4°C° 0 mm 2 mps 478 mmHg 40%
    17:00 +3°C° 0 mm 2 mps 478 mmHg 40%
    18:00 +2°C° 0 mm 2 mps 477 mmHg 44%
    19:00 +2°C° 0 mm 1 mps 476 mmHg 48%
    20:00 0°C° 0 mm 1 mps 475 mmHg 52%
    21:00 0°C° 0 mm 1 mps 475 mmHg 53%
    22:00 -2°C° 0 mm 2 mps 475 mmHg 54%
    23:00 -2°C° 0 mm 2 mps 475 mmHg 54%

    29 April, Monday

    Time Temperature Precipitation Wind Pressure Humidity
    00:00 -2°C° 0 mm 2 mps 475 mmHg 55%
    01:00 -3°C° 0 mm 2 mps 475 mmHg 56%
    02:00 -3°C° 0 mm 2 mps 474 mmHg 58%
    03:00 -3°C° 0 mm 2 mps 474 mmHg 58%
    04:00 -3°C° 0 mm 2 mps 474 mmHg 58%
    05:00 -3°C° 0 mm 2 mps 474 mmHg 59%
    06:00 -2°C° 0 mm 2 mps 475 mmHg 56%
    07:00 -1°C° 0 mm 2 mps 475 mmHg 54%
    08:00 +1°C° 0 mm 2 mps 476 mmHg 51%
    09:00 +1°C° 0 mm 3 mps 477 mmHg 48%
    10:00 +2°C° 0 mm 3 mps 477 mmHg 45%
    11:00 +3°C° 0 mm 4 mps 478 mmHg 42%
    12:00 +4°C° 0 mm 4 mps 478 mmHg 41%
    13:00 +4°C° 0 mm 4 mps 478 mmHg 41%
    14:00 +5°C° 0 mm 5 mps 478 mmHg 40%
    15:00 +3°C° 0 mm 5 mps 477 mmHg 41%
    16:00 +4°C° 0 mm 4 mps 477 mmHg 43%
    17:00 +4°C° 0 mm 4 mps 477 mmHg 44%
    18:00 +3°C° 0.1 mm 4 mps 476 mmHg 49%
    19:00 +2°C° 0.1 mm 3 mps 476 mmHg 54%
    20:00 +1°C° 0.1 mm 3 mps 476 mmHg 59%
    21:00 0°C° 0.3 mm 3 mps 476 mmHg 64%
    22:00 0°C° 0.3 mm 3 mps 476 mmHg 69%
    23:00 -2°C° 0.3 mm 4 mps 475 mmHg 74%

    30 April, Tuesday

    Time Temperature Precipitation Wind Pressure Humidity
    00:00 -2°C° 0.6 mm 4 mps 475 mmHg 76%
    01:00 -2°C° 0.6 mm 4 mps 475 mmHg 78%
    02:00 -2°C° 0.6 mm 4 mps 475 mmHg 80%
    03:00 -2°C° 0.4 mm 4 mps 475 mmHg 79%
    04:00 -2°C° 0.4 mm 4 mps 475 mmHg 79%
    05:00 -2°C° 0.4 mm 4 mps 475 mmHg 79%
    06:00 -2°C° 0.1 mm 4 mps 475 mmHg 76%
    07:00 -2°C° 0.1 mm 4 mps 476 mmHg 74%
    08:00 -1°C° 0.1 mm 4 mps 476 mmHg 71%
    09:00 -1°C° 0.4 mm 4 mps 476 mmHg 73%
    10:00 -1°C° 0.4 mm 4 mps 476 mmHg 74%
    11:00 0°C° 0.4 mm 4 mps 477 mmHg 75%
    12:00 0°C° 0.4 mm 4 mps 477 mmHg 72%
    13:00 +2°C° 0.4 mm 3 mps 477 mmHg 70%
    14:00 +2°C° 0.4 mm 3 mps 477 mmHg 67%
    15:00 +1°C° 0.8 mm 3 mps 476 mmHg 71%
    16:00 +1°C° 0.8 mm 3 mps 476 mmHg 75%
    17:00 0°C° 0.8 mm 3 mps 475 mmHg 78%
    18:00 -1°C° 0.3 mm 3 mps 475 mmHg 80%
    19:00 -2°C° 0.3 mm 3 mps 474 mmHg 83%
    20:00 -2°C° 0.3 mm 3 mps 474 mmHg 85%
    21:00 -3°C° 0.2 mm 2 mps 474 mmHg 84%
    22:00 -3°C° 0.2 mm 2 mps 474 mmHg 83%
    23:00 -1°C° 0.2 mm 1 mps 474 mmHg 82%
    Show more